Time,TemperatureF,DewpointF,PressureIn,WindDirection,WindDirectionDegrees,WindSpeedMPH,WindSpeedGustMPH,Humidity,HourlyPrecipIn,Conditions,Clouds,dailyrainin,SolarRadiationWatts/m^2,SoftwareType,DateUTC
2013-11-04 00:00:00,51.5,41.7,29.97,NNE,25,1.0,1.0,69,0.00,,,0.00,0,Wunderground v.1.15,2013-11-04 08:00:00,
2013-11-04 00:05:00,51.4,41.6,29.97,NNE,24,1.0,1.0,69,0.00,,,0.00,0,Wunderground v.1.15,2013-11-04 08:05:00,
2013-11-04 00:15:00,51.2,41.4,29.97,NNE,25,0.0,3.0,69,0.00,,,0.00,0,Wunderground v.1.15,2013-11-04 08:15:00,
2013-11-04 00:25:00,51.1,41.3,29.97,NNE,24,2.0,2.0,69,0.00,,,0.00,0,Wunderground v.1.15,2013-11-04 08:25:00,
2013-11-04 00:30:00,51.1,41.7,29.97,NE,41,2.0,5.0,70,0.00,,,0.00,0,Wunderground v.1.15,2013-11-04 08:30:00,
2013-11-04 00:35:00,51.1,42.0,29.97,NE,49,4.0,5.0,71,0.00,,,0.00,0,Wunderground v.1.15,2013-11-04 08:35:00,
2013-11-04 00:40:00,51.1,42.4,29.97,NE,55,4.0,5.0,72,0.00,,,0.00,0,Wunderground v.1.15,2013-11-04 08:40:00,
2013-11-04 00:50:00,51.2,42.5,29.97,ENE,67,4.0,4.0,72,0.00,,,0.00,0,Wunderground v.1.15,2013-11-04 08:50:00,
2013-11-04 01:00:00,50.7,42.0,29.97,ENE,67,2.0,2.0,72,0.00,,,0.00,0,Wunderground v.1.15,2013-11-04 09:00:00,
2013-11-04 01:10:00,50.2,41.9,29.97,ENE,67,3.0,4.0,73,0.00,,,0.00,0,Wunderground v.1.15,2013-11-04 09:10:00,
2013-11-04 01:21:00,50.0,42.0,29.97,ENE,67,3.0,3.0,74,0.00,,,0.00,0,Wunderground v.1.15,2013-11-04 09:21:00,
2013-11-04 01:30:00,49.9,42.3,29.97,ENE,67,4.0,4.0,75,0.00,,,0.00,0,Wunderground v.1.15,2013-11-04 09:30:00,
2013-11-04 01:40:00,49.9,41.9,29.97,ENE,68,1.0,1.0,74,0.00,,,0.00,0,Wunderground v.1.15,2013-11-04 09:40:00,
2013-11-04 01:45:00,49.7,41.7,29.97,ENE,67,2.0,3.0,74,0.00,,,0.00,0,Wunderground v.1.15,2013-11-04 09:45:00,
2013-11-04 01:55:00,49.3,41.4,29.97,ENE,66,3.0,3.0,74,0.00,,,0.00,0,Wunderground v.1.15,2013-11-04 09:55:00,
2013-11-04 02:06:00,49.0,41.4,29.97,ENE,66,2.0,3.0,75,0.00,,,0.00,0,Wunderground v.1.15,2013-11-04 10:06:00,
2013-11-04 02:11:00,48.8,41.2,29.97,ENE,67,3.0,3.0,75,0.00,,,0.00,0,Wunderground v.1.15,2013-11-04 10:11:00,
2013-11-04 02:20:00,48.6,41.4,29.97,ENE,66,2.0,2.0,76,0.00,,,0.00,0,Wunderground v.1.15,2013-11-04 10:20:00,
2013-11-04 02:30:00,48.6,41.4,29.97,ENE,66,2.0,2.0,76,0.00,,,0.00,0,Wunderground v.1.15,2013-11-04 10:30:00,
2013-11-04 02:40:00,48.5,41.3,29.97,ENE,67,1.0,1.0,76,0.00,,,0.00,0,Wunderground v.1.15,2013-11-04 10:40:00,
2013-11-04 02:50:00,48.3,41.1,29.97,ENE,66,0.0,2.0,76,0.00,,,0.00,0,Wunderground v.1.15,2013-11-04 10:50:00,
2013-11-04 02:55:00,48.3,41.4,29.97,ENE,66,0.0,2.0,77,0.00,,,0.00,0,Wunderground v.1.15,2013-11-04 10:55:00,
2013-11-04 03:05:00,48.7,42.1,29.97,ENE,67,0.0,0.0,78,0.00,,,0.00,0,Wunderground v.1.15,2013-11-04 11:05:00,
2013-11-04 03:15:00,48.4,41.5,29.97,ENE,66,0.0,0.0,77,0.00,,,0.00,0,Wunderground v.1.15,2013-11-04 11:15:00,
2013-11-04 03:20:00,48.4,41.9,29.97,ENE,66,0.0,0.0,78,0.00,,,0.00,0,Wunderground v.1.15,2013-11-04 11:20:00,
2013-11-04 03:25:00,48.3,41.4,29.97,ENE,66,0.0,0.0,77,0.00,,,0.00,0,Wunderground v.1.15,2013-11-04 11:25:00,
2013-11-04 03:35:00,48.0,41.1,29.97,ENE,66,0.0,0.0,77,0.00,,,0.00,0,Wunderground v.1.15,2013-11-04 11:35:00,
2013-11-04 03:45:00,47.8,41.3,29.97,ENE,66,0.0,0.0,78,0.00,,,0.00,0,Wunderground v.1.15,2013-11-04 11:45:00,
2013-11-04 03:51:00,47.8,41.3,29.97,ENE,68,0.0,0.0,78,0.00,,,0.00,0,Wunderground v.1.15,2013-11-04 11:51:00,
2013-11-04 04:00:00,47.4,40.6,29.97,ENE,67,0.0,0.0,77,0.00,,,0.00,0,Wunderground v.1.15,2013-11-04 12:00:00,
2013-11-04 04:05:00,47.3,40.8,29.97,ENE,66,1.0,2.0,78,0.00,,,0.00,0,Wunderground v.1.15,2013-11-04 12:05:00,
2013-11-04 04:10:00,47.1,40.6,29.97,ENE,68,1.0,1.0,78,0.00,,,0.00,0,Wunderground v.1.15,2013-11-04 12:10:00,
2013-11-04 04:15:00,46.9,40.4,29.97,ENE,68,0.0,1.0,78,0.00,,,0.00,0,Wunderground v.1.15,2013-11-04 12:15:00,
2013-11-04 04:25:00,46.9,40.4,29.97,ENE,67,1.0,2.0,78,0.00,,,0.00,0,Wunderground v.1.15,2013-11-04 12:25:00,
2013-11-04 04:36:00,46.9,40.4,29.98,ENE,67,3.0,4.0,78,0.00,,,0.00,0,Wunderground v.1.15,2013-11-04 12:36:00,
2013-11-04 04:45:00,46.9,40.4,29.98,ENE,67,1.0,2.0,78,0.00,,,0.00,0,Wunderground v.1.15,2013-11-04 12:45:00,
2013-11-04 04:50:00,46.9,40.4,29.98,ENE,66,1.0,2.0,78,0.00,,,0.00,0,Wunderground v.1.15,2013-11-04 12:50:00,
2013-11-04 04:56:00,46.8,40.3,29.98,ENE,67,1.0,3.0,78,0.00,,,0.00,0,Wunderground v.1.15,2013-11-04 12:56:00,
2013-11-04 05:05:00,46.7,40.2,29.99,ENE,67,2.0,2.0,78,0.00,,,0.00,0,Wunderground v.1.15,2013-11-04 13:05:00,
2013-11-04 05:10:00,46.8,40.3,29.99,ENE,66,2.0,2.0,78,0.00,,,0.00,0,Wunderground v.1.15,2013-11-04 13:10:00,
2013-11-04 05:15:00,46.7,40.2,30.00,ENE,66,0.0,2.0,78,0.00,,,0.00,0,Wunderground v.1.15,2013-11-04 13:15:00,
2013-11-04 05:20:00,46.7,40.2,30.00,ENE,66,0.0,0.0,78,0.00,,,0.00,0,Wunderground v.1.15,2013-11-04 13:20:00,
2013-11-04 05:30:00,46.6,39.8,30.00,ENE,66,0.0,0.0,77,0.00,,,0.00,0,Wunderground v.1.15,2013-11-04 13:30:00,
2013-11-04 05:35:00,46.5,39.7,30.00,ENE,67,0.0,3.0,77,0.00,,,0.00,0,Wunderground v.1.15,2013-11-04 13:35:00,
2013-11-04 05:45:00,46.5,40.0,30.01,ENE,67,2.0,3.0,78,0.00,,,0.00,0,Wunderground v.1.15,2013-11-04 13:45:00,
2013-11-04 05:50:00,46.5,40.0,30.01,ENE,66,2.0,2.0,78,0.00,,,0.00,0,Wunderground v.1.15,2013-11-04 13:50:00,
2013-11-04 05:55:00,46.6,39.8,30.01,ENE,67,2.0,4.0,77,0.00,,,0.00,0,Wunderground v.1.15,2013-11-04 13:55:00,
2013-11-04 06:05:00,46.6,39.8,30.01,ENE,66,3.0,4.0,77,0.00,,,0.00,0,Wunderground v.1.15,2013-11-04 14:05:00,
2013-11-04 06:10:00,46.6,39.8,30.01,ENE,68,4.0,4.0,77,0.00,,,0.00,0,Wunderground v.1.15,2013-11-04 14:10:00,
2013-11-04 06:15:00,46.7,39.9,30.01,ENE,67,4.0,4.0,77,0.00,,,0.00,0,Wunderground v.1.15,2013-11-04 14:15:00,
2013-11-04 06:25:00,46.7,39.9,30.01,ENE,68,2.0,3.0,77,0.00,,,0.00,0,Wunderground v.1.15,2013-11-04 14:25:00,
2013-11-04 06:30:00,46.6,39.8,30.02,ENE,67,2.0,3.0,77,0.00,,,0.00,0,Wunderground v.1.15,2013-11-04 14:30:00,
2013-11-04 06:40:00,46.7,40.2,30.02,ENE,66,3.0,5.0,78,0.00,,,0.00,5,Wunderground v.1.15,2013-11-04 14:40:00,
2013-11-04 06:45:00,46.9,40.4,30.02,ENE,69,3.0,5.0,78,0.00,,,0.00,7,Wunderground v.1.15,2013-11-04 14:45:00,
2013-11-04 06:55:00,47.1,40.3,30.03,ENE,72,4.0,4.0,77,0.00,,,0.00,12,Wunderground v.1.15,2013-11-04 14:55:00,
2013-11-04 07:00:00,47.5,40.6,30.03,SSW,213,3.0,4.0,77,0.00,,,0.00,18,Wunderground v.1.15,2013-11-04 15:00:00,
2013-11-04 07:10:00,48.8,41.9,30.04,SSW,213,3.0,3.0,77,0.00,,,0.00,35,Wunderground v.1.15,2013-11-04 15:10:00,
2013-11-04 07:15:00,49.7,42.4,30.04,SSW,213,2.0,3.0,76,0.00,,,0.00,46,Wunderground v.1.15,2013-11-04 15:15:00,
2013-11-04 07:20:00,50.7,42.7,30.04,ENE,64,2.0,2.0,74,0.00,,,0.00,60,Wunderground v.1.15,2013-11-04 15:20:00,
2013-11-04 07:25:00,51.6,42.5,30.04,ENE,57,2.0,6.0,71,0.00,,,0.00,76,Wunderground v.1.15,2013-11-04 15:25:00,
2013-11-04 07:35:00,53.1,42.4,30.04,NE,55,4.0,4.0,67,0.00,,,0.00,105,Wunderground v.1.15,2013-11-04 15:35:00,
2013-11-04 07:40:00,54.0,42.5,30.04,NE,52,3.0,3.0,65,0.00,,,0.00,127,Wunderground v.1.15,2013-11-04 15:40:00,
2013-11-04 07:45:00,54.9,42.5,30.04,ENE,61,4.0,4.0,63,0.00,,,0.00,144,Wunderground v.1.15,2013-11-04 15:45:00,
2013-11-04 07:50:00,55.5,42.3,30.04,ENE,78,4.0,6.0,61,0.00,,,0.00,158,Wunderground v.1.15,2013-11-04 15:50:00,
2013-11-04 08:00:00,56.2,42.1,30.04,East,80,4.0,4.0,59,0.00,,,0.00,190,Wunderground v.1.15,2013-11-04 16:00:00,
2013-11-04 08:05:00,56.9,42.3,30.04,SSW,213,3.0,5.0,58,0.00,,,0.00,204,Wunderground v.1.15,2013-11-04 16:05:00,
2013-11-04 08:15:00,57.7,42.1,30.04,NE,51,5.0,5.0,56,0.00,,,0.00,234,Wunderground v.1.15,2013-11-04 16:15:00,
2013-11-04 08:25:00,58.7,41.6,30.05,NE,35,4.0,6.0,53,0.00,,,0.00,260,Wunderground v.1.15,2013-11-04 16:25:00,
2013-11-04 08:30:00,59.0,41.9,30.05,NE,45,4.0,4.0,53,0.00,,,0.00,272,Wunderground v.1.15,2013-11-04 16:30:00,
2013-11-04 08:35:00,59.7,42.0,30.05,NE,40,3.0,4.0,52,0.00,,,0.00,287,Wunderground v.1.15,2013-11-04 16:35:00,
2013-11-04 08:45:00,60.5,40.2,30.05,NE,39,5.0,5.0,47,0.00,,,0.00,316,Wunderground v.1.15,2013-11-04 16:45:00,
2013-11-04 08:50:00,60.5,40.7,30.05,NNE,29,5.0,5.0,48,0.00,,,0.00,329,Wunderground v.1.15,2013-11-04 16:50:00,
2013-11-04 08:55:00,60.9,40.5,30.05,NE,39,5.0,5.0,47,0.00,,,0.00,341,Wunderground v.1.15,2013-11-04 16:55:00,
2013-11-04 09:00:00,60.9,40.5,30.05,NNE,23,6.0,8.0,47,0.00,,,0.00,355,Wunderground v.1.15,2013-11-04 17:00:00,
2013-11-04 09:10:00,61.0,40.1,30.05,NNE,20,7.0,7.0,46,0.00,,,0.00,381,Wunderground v.1.15,2013-11-04 17:10:00,
2013-11-04 09:20:00,61.3,39.2,30.06,NNE,18,9.0,9.0,44,0.00,,,0.00,404,Wunderground v.1.15,2013-11-04 17:20:00,
2013-11-04 09:30:00,61.6,38.3,30.06,NNE,28,9.0,9.0,42,0.00,,,0.00,427,Wunderground v.1.15,2013-11-04 17:30:00,
2013-11-04 09:40:00,62.2,38.2,30.05,North,4,8.0,9.0,41,0.00,,,0.00,448,Wunderground v.1.15,2013-11-04 17:40:00,
2013-11-04 09:50:00,63.0,38.3,30.05,NNE,32,7.0,10.0,40,0.00,,,0.00,468,Wunderground v.1.15,2013-11-04 17:50:00,
2013-11-04 09:55:00,63.1,39.0,30.06,NNE,29,8.0,10.0,41,0.00,,,0.00,478,Wunderground v.1.15,2013-11-04 17:55:00,
2013-11-04 10:05:00,63.2,37.8,30.05,NNE,15,10.0,10.0,39,0.00,,,0.00,497,Wunderground v.1.15,2013-11-04 18:05:00,
2013-11-04 10:15:00,64.2,36.7,30.06,North,3,8.0,14.0,36,0.00,,,0.00,513,Wunderground v.1.15,2013-11-04 18:15:00,
2013-11-04 10:25:00,64.3,36.8,30.05,North,10,9.0,9.0,36,0.00,,,0.00,531,Wunderground v.1.15,2013-11-04 18:25:00,
2013-11-04 10:30:00,64.6,37.0,30.05,NNE,20,8.0,9.0,36,0.00,,,0.00,538,Wunderground v.1.15,2013-11-04 18:30:00,
2013-11-04 10:35:00,64.7,37.1,30.05,North,10,8.0,9.0,36,0.00,,,0.00,543,Wunderground v.1.15,2013-11-04 18:35:00,
2013-11-04 10:40:00,65.2,36.1,30.04,North,359,7.0,7.0,34,0.00,,,0.00,552,Wunderground v.1.15,2013-11-04 18:40:00,
2013-11-04 10:50:00,65.5,35.6,30.04,North,8,7.0,7.0,33,0.00,,,0.00,564,Wunderground v.1.15,2013-11-04 18:50:00,
2013-11-04 11:00:00,66.5,35.7,30.03,NNE,24,7.0,9.0,32,0.00,,,0.00,575,Wunderground v.1.15,2013-11-04 19:00:00,
2013-11-04 11:05:00,66.8,33.5,30.03,NNE,33,7.0,9.0,29,0.00,,,0.00,580,Wunderground v.1.15,2013-11-04 19:05:00,
2013-11-04 11:15:00,67.6,32.4,30.03,North,3,6.0,6.0,27,0.00,,,0.00,587,Wunderground v.1.15,2013-11-04 19:15:00,
2013-11-04 11:20:00,68.2,32.0,30.03,NNW,340,5.0,7.0,26,0.00,,,0.00,589,Wunderground v.1.15,2013-11-04 19:20:00,
2013-11-04 11:30:00,68.4,32.1,30.02,North,8,6.0,6.0,26,0.00,,,0.00,594,Wunderground v.1.15,2013-11-04 19:30:00,
2013-11-04 11:40:00,68.3,31.1,30.02,NNW,347,4.0,7.0,25,0.00,,,0.00,598,Wunderground v.1.15,2013-11-04 19:40:00,
2013-11-04 11:45:00,66.5,37.2,30.02,NW,310,5.0,7.0,34,0.00,,,0.00,599,Wunderground v.1.15,2013-11-04 19:45:00,
2013-11-04 11:50:00,64.3,41.3,30.02,NW,308,4.0,4.0,43,0.00,,,0.00,598,Wunderground v.1.15,2013-11-04 19:50:00,
2013-11-04 12:00:00,62.8,44.9,30.02,SW,228,1.0,3.0,52,0.00,,,0.00,599,Wunderground v.1.15,2013-11-04 20:00:00,
2013-11-04 12:05:00,62.0,46.1,30.02,SW,223,3.0,4.0,56,0.00,,,0.00,599,Wunderground v.1.15,2013-11-04 20:05:00,
2013-11-04 12:15:00,60.8,47.7,30.01,SW,232,6.0,6.0,62,0.00,,,0.00,598,Wunderground v.1.15,2013-11-04 20:15:00,
2013-11-04 12:20:00,60.6,46.6,30.01,WSW,250,7.0,7.0,60,0.00,,,0.00,596,Wunderground v.1.15,2013-11-04 20:20:00,
2013-11-04 12:25:00,60.8,46.8,30.01,SW,226,6.0,7.0,60,0.00,,,0.00,592,Wunderground v.1.15,2013-11-04 20:25:00,
2013-11-04 12:35:00,60.1,47.0,30.00,WSW,239,7.0,7.0,62,0.00,,,0.00,589,Wunderground v.1.15,2013-11-04 20:35:00,
2013-11-04 12:40:00,59.5,47.3,30.00,SW,235,7.0,7.0,64,0.00,,,0.00,575,Wunderground v.1.15,2013-11-04 20:40:00,
2013-11-04 12:45:00,59.6,47.0,30.00,SW,218,7.0,8.0,63,0.00,,,0.00,582,Wunderground v.1.15,2013-11-04 20:45:00,
2013-11-04 12:55:00,60.5,47.4,30.00,WSW,238,5.0,6.0,62,0.00,,,0.00,571,Wunderground v.1.15,2013-11-04 20:55:00,
2013-11-04 13:00:00,60.4,47.3,29.99,WSW,253,6.0,8.0,62,0.00,,,0.00,568,Wunderground v.1.15,2013-11-04 21:00:00,
2013-11-04 13:06:00,60.7,47.2,29.99,SW,227,6.0,8.0,61,0.00,,,0.00,561,Wunderground v.1.15,2013-11-04 21:06:00,
2013-11-04 13:15:00,60.9,49.1,29.99,SW,223,5.0,6.0,65,0.00,,,0.00,548,Wunderground v.1.15,2013-11-04 21:15:00,
2013-11-04 13:25:00,60.5,49.5,29.99,WSW,237,5.0,9.0,67,0.00,,,0.00,536,Wunderground v.1.15,2013-11-04 21:25:00,
2013-11-04 13:35:00,60.1,49.5,29.99,SSW,213,5.0,7.0,68,0.00,,,0.00,527,Wunderground v.1.15,2013-11-04 21:35:00,
2013-11-04 13:40:00,59.9,49.3,29.99,SSW,195,5.0,5.0,68,0.00,,,0.00,519,Wunderground v.1.15,2013-11-04 21:40:00,
2013-11-04 13:50:00,60.3,47.6,29.98,SSW,195,4.0,4.0,63,0.00,,,0.00,504,Wunderground v.1.15,2013-11-04 21:50:00,
2013-11-04 13:55:00,61.2,46.3,29.99,SSW,193,3.0,4.0,58,0.00,,,0.00,496,Wunderground v.1.15,2013-11-04 21:55:00,
2013-11-04 14:05:00,62.1,47.6,29.98,WSW,246,4.0,4.0,59,0.00,,,0.00,480,Wunderground v.1.15,2013-11-04 22:05:00,
2013-11-04 14:15:00,62.5,48.4,29.98,WSW,239,4.0,5.0,60,0.00,,,0.00,459,Wunderground v.1.15,2013-11-04 22:15:00,
2013-11-04 14:20:00,62.7,47.2,29.98,WSW,238,3.0,3.0,57,0.00,,,0.00,448,Wunderground v.1.15,2013-11-04 22:20:00,
2013-11-04 14:30:00,63.1,45.7,29.98,WSW,241,2.0,2.0,53,0.00,,,0.00,425,Wunderground v.1.15,2013-11-04 22:30:00,
2013-11-04 14:35:00,62.9,44.5,29.98,WSW,237,3.0,3.0,51,0.00,,,0.00,413,Wunderground v.1.15,2013-11-04 22:35:00,
2013-11-04 14:40:00,63.1,45.7,29.97,SW,235,2.0,2.0,53,0.00,,,0.00,401,Wunderground v.1.15,2013-11-04 22:40:00,
2013-11-04 14:46:00,64.1,45.1,29.97,SW,235,1.0,2.0,50,0.00,,,0.00,390,Wunderground v.1.15,2013-11-04 22:46:00,
2013-11-04 14:55:00,67.2,33.0,29.97,NE,39,5.0,10.0,28,0.00,,,0.00,366,Wunderground v.1.15,2013-11-04 22:55:00,
2013-11-04 15:00:00,70.6,31.0,29.97,NE,41,9.0,10.0,23,0.00,,,0.00,352,Wunderground v.1.15,2013-11-04 23:00:00,
2013-11-04 15:11:00,73.2,30.9,29.97,NNE,29,12.0,14.0,21,0.00,,,0.00,329,Wunderground v.1.15,2013-11-04 23:11:00,
2013-11-04 15:20:00,73.3,29.8,29.97,NNE,20,13.0,13.0,20,0.00,,,0.00,299,Wunderground v.1.15,2013-11-04 23:20:00,
2013-11-04 15:25:00,73.4,31.1,29.97,NNE,32,10.0,13.0,21,0.00,,,0.00,285,Wunderground v.1.15,2013-11-04 23:25:00,
2013-11-04 15:31:00,73.6,28.8,29.97,NNE,20,9.0,9.0,19,0.00,,,0.00,271,Wunderground v.1.15,2013-11-04 23:31:00,
2013-11-04 15:40:00,73.8,28.9,29.97,NE,35,8.0,14.0,19,0.00,,,0.00,239,Wunderground v.1.15,2013-11-04 23:40:00,
2013-11-04 15:45:00,73.7,28.8,29.97,NE,37,8.0,14.0,19,0.00,,,0.00,221,Wunderground v.1.15,2013-11-04 23:45:00,
2013-11-04 15:55:00,73.7,27.5,29.97,NE,40,9.0,11.0,18,0.00,,,0.00,185,Wunderground v.1.15,2013-11-04 23:55:00,
2013-11-04 16:00:00,73.5,28.7,29.97,NNE,13,9.0,9.0,19,0.00,,,0.00,163,Wunderground v.1.15,2013-11-05 00:00:00,
2013-11-04 16:10:00,73.1,28.4,29.97,NNE,22,10.0,10.0,19,0.00,,,0.00,128,Wunderground v.1.15,2013-11-05 00:10:00,
2013-11-04 16:15:00,72.8,28.1,29.97,NE,39,11.0,14.0,19,0.00,,,0.00,111,Wunderground v.1.15,2013-11-05 00:15:00,
2013-11-04 16:25:00,72.2,27.6,29.98,NNE,33,12.0,17.0,19,0.00,,,0.00,76,Wunderground v.1.15,2013-11-05 00:25:00,
2013-11-04 16:35:00,71.6,28.4,29.98,NNE,12,13.0,15.0,20,0.00,,,0.00,47,Wunderground v.1.15,2013-11-05 00:35:00,
2013-11-04 16:45:00,70.9,29.0,29.98,NNE,31,11.0,12.0,21,0.00,,,0.00,25,Wunderground v.1.15,2013-11-05 00:45:00,
2013-11-04 16:55:00,70.2,29.5,29.98,NNE,19,11.0,14.0,22,0.00,,,0.00,12,Wunderground v.1.15,2013-11-05 00:55:00,
2013-11-04 17:05:00,69.3,29.9,29.99,NNE,21,10.0,11.0,23,0.00,,,0.00,5,Wunderground v.1.15,2013-11-05 01:05:00,
2013-11-04 17:10:00,68.9,30.6,29.99,NNE,15,9.0,11.0,24,0.00,,,0.00,0,Wunderground v.1.15,2013-11-05 01:10:00,
2013-11-04 17:20:00,68.4,30.2,30.00,NE,36,10.0,15.0,24,0.00,,,0.00,0,Wunderground v.1.15,2013-11-05 01:20:00,
2013-11-04 17:30:00,68.1,31.9,30.00,NNE,29,11.0,11.0,26,0.00,,,0.00,0,Wunderground v.1.15,2013-11-05 01:30:00,
2013-11-04 17:40:00,67.4,35.7,30.01,NW,326,8.0,8.0,31,0.00,,,0.00,0,Wunderground v.1.15,2013-11-05 01:40:00,
2013-11-04 17:50:00,65.0,39.4,30.02,NNW,332,8.0,8.0,39,0.00,,,0.00,0,Wunderground v.1.15,2013-11-05 01:50:00,
2013-11-04 17:55:00,64.3,39.4,30.02,NNW,327,7.0,8.0,40,0.00,,,0.00,0,Wunderground v.1.15,2013-11-05 01:55:00,
2013-11-04 18:05:00,63.5,40.0,30.02,NNW,328,3.0,3.0,42,0.00,,,0.00,0,Wunderground v.1.15,2013-11-05 02:05:00,
2013-11-04 18:20:00,62.8,40.5,30.03,NNW,327,3.0,3.0,44,0.00,,,0.00,0,Wunderground v.1.15,2013-11-05 02:20:00,
2013-11-04 18:30:00,62.3,40.1,30.03,NNW,328,3.0,3.0,44,0.00,,,0.00,0,Wunderground v.1.15,2013-11-05 02:30:00,
2013-11-04 18:35:00,62.2,40.6,30.03,North,349,4.0,4.0,45,0.00,,,0.00,0,Wunderground v.1.15,2013-11-05 02:35:00,
2013-11-04 18:40:00,62.0,40.4,30.03,NNW,348,3.0,4.0,45,0.00,,,0.00,0,Wunderground v.1.15,2013-11-05 02:40:00,
2013-11-04 18:46:00,61.8,40.8,30.03,North,349,2.0,4.0,46,0.00,,,0.00,0,Wunderground v.1.15,2013-11-05 02:46:00,
2013-11-04 18:55:00,61.1,41.2,30.03,North,357,3.0,5.0,48,0.00,,,0.00,0,Wunderground v.1.15,2013-11-05 02:55:00,
2013-11-04 19:10:00,60.8,41.5,30.03,NNE,14,3.0,4.0,49,0.00,,,0.00,0,Wunderground v.1.15,2013-11-05 03:10:00,
2013-11-04 19:15:00,60.9,40.5,30.03,NNE,19,4.0,4.0,47,0.00,,,0.00,0,Wunderground v.1.15,2013-11-05 03:15:00,
2013-11-04 19:25:00,61.1,40.1,30.03,NE,37,5.0,6.0,46,0.00,,,0.00,0,Wunderground v.1.15,2013-11-05 03:25:00,
2013-11-04 19:35:00,60.9,40.0,30.03,NE,38,3.0,5.0,46,0.00,,,0.00,0,Wunderground v.1.15,2013-11-05 03:35:00,
2013-11-04 19:45:00,60.5,39.6,30.04,NE,40,2.0,2.0,46,0.00,,,0.00,0,Wunderground v.1.15,2013-11-05 03:45:00,
2013-11-04 19:50:00,60.4,40.1,30.04,NE,40,1.0,3.0,47,0.00,,,0.00,0,Wunderground v.1.15,2013-11-05 03:50:00,
2013-11-04 19:55:00,60.2,39.9,30.04,NE,39,1.0,3.0,47,0.00,,,0.00,0,Wunderground v.1.15,2013-11-05 03:55:00,
2013-11-04 20:05:00,60.1,40.3,30.05,ENE,59,4.0,5.0,48,0.00,,,0.00,0,Wunderground v.1.15,2013-11-05 04:05:00,
2013-11-04 20:10:00,60.0,40.2,30.05,ENE,59,4.0,4.0,48,0.00,,,0.00,0,Wunderground v.1.15,2013-11-05 04:10:00,
2013-11-04 20:20:00,59.7,40.5,30.05,NE,38,3.0,6.0,49,0.00,,,0.00,0,Wunderground v.1.15,2013-11-05 04:20:00,
2013-11-04 20:25:00,59.5,40.8,30.05,NE,48,4.0,6.0,50,0.00,,,0.00,0,Wunderground v.1.15,2013-11-05 04:25:00,
2013-11-04 20:35:00,59.1,41.5,30.06,ENE,72,4.0,5.0,52,0.00,,,0.00,0,Wunderground v.1.15,2013-11-05 04:35:00,
2013-11-04 20:45:00,59.0,41.9,30.07,NE,55,5.0,5.0,53,0.00,,,0.00,0,Wunderground v.1.15,2013-11-05 04:45:00,
2013-11-04 20:55:00,58.9,41.8,30.07,NNE,26,6.0,6.0,53,0.00,,,0.00,0,Wunderground v.1.15,2013-11-05 04:55:00,
2013-11-04 21:00:00,58.9,41.8,30.07,NNE,28,7.0,8.0,53,0.00,,,0.00,0,Wunderground v.1.15,2013-11-05 05:00:00,
2013-11-04 21:05:00,58.9,41.8,30.07,NNE,29,8.0,10.0,53,0.00,,,0.00,0,Wunderground v.1.15,2013-11-05 05:05:00,
2013-11-04 21:10:00,58.9,42.3,30.07,NE,53,8.0,8.0,54,0.00,,,0.00,0,Wunderground v.1.15,2013-11-05 05:10:00,
2013-11-04 21:15:00,58.9,42.8,30.07,NNE,22,8.0,8.0,55,0.00,,,0.00,0,Wunderground v.1.15,2013-11-05 05:15:00,
2013-11-04 21:20:00,58.7,43.0,30.07,NNE,18,8.0,8.0,56,0.00,,,0.00,0,Wunderground v.1.15,2013-11-05 05:20:00,
2013-11-04 21:25:00,58.6,42.9,30.08,NNE,24,7.0,8.0,56,0.00,,,0.00,0,Wunderground v.1.15,2013-11-05 05:25:00,
2013-11-04 21:30:00,58.5,42.8,30.08,NNE,16,6.0,6.0,56,0.00,,,0.00,0,Wunderground v.1.15,2013-11-05 05:30:00,
2013-11-04 21:40:00,58.3,42.2,30.08,NNE,26,6.0,7.0,55,0.00,,,0.00,0,Wunderground v.1.15,2013-11-05 05:40:00,
2013-11-04 21:50:00,58.1,42.0,30.08,ENE,57,5.0,5.0,55,0.00,,,0.00,0,Wunderground v.1.15,2013-11-05 05:50:00,
2013-11-04 21:55:00,58.0,41.9,30.08,ENE,58,4.0,5.0,55,0.00,,,0.00,0,Wunderground v.1.15,2013-11-05 05:55:00,
2013-11-04 22:00:00,57.8,42.2,30.08,ENE,60,3.0,3.0,56,0.00,,,0.00,0,Wunderground v.1.15,2013-11-05 06:00:00,
2013-11-04 22:10:00,57.3,42.2,30.08,NE,55,4.0,4.0,57,0.00,,,0.00,0,Wunderground v.1.15,2013-11-05 06:10:00,
2013-11-04 22:15:00,57.1,42.5,30.08,NE,53,3.0,4.0,58,0.00,,,0.00,0,Wunderground v.1.15,2013-11-05 06:15:00,
2013-11-04 22:25:00,56.6,42.9,30.09,NE,37,4.0,7.0,60,0.00,,,0.00,0,Wunderground v.1.15,2013-11-05 06:25:00,
2013-11-04 22:30:00,56.6,42.9,30.09,NE,41,5.0,5.0,60,0.00,,,0.00,0,Wunderground v.1.15,2013-11-05 06:30:00,
2013-11-04 22:35:00,56.5,42.3,30.09,NE,39,5.0,5.0,59,0.00,,,0.00,0,Wunderground v.1.15,2013-11-05 06:35:00,
2013-11-04 22:40:00,56.4,42.2,30.09,NNE,28,5.0,9.0,59,0.00,,,0.00,0,Wunderground v.1.15,2013-11-05 06:40:00,
2013-11-04 22:50:00,56.5,42.3,30.09,NNE,20,7.0,7.0,59,0.00,,,0.00,0,Wunderground v.1.15,2013-11-05 06:50:00,
2013-11-04 22:55:00,56.6,42.9,30.09,NE,34,9.0,11.0,60,0.00,,,0.00,0,Wunderground v.1.15,2013-11-05 06:55:00,
2013-11-04 23:05:00,56.5,42.8,30.09,NNE,33,8.0,9.0,60,0.00,,,0.00,0,Wunderground v.1.15,2013-11-05 07:05:00,
2013-11-04 23:10:00,56.4,43.1,30.09,NNE,33,7.0,7.0,61,0.00,,,0.00,0,Wunderground v.1.15,2013-11-05 07:10:00,
2013-11-04 23:20:00,56.3,42.6,30.09,NNE,27,7.0,7.0,60,0.00,,,0.00,0,Wunderground v.1.15,2013-11-05 07:20:00,
2013-11-04 23:30:00,56.5,42.3,30.10,NE,39,6.0,6.0,59,0.00,,,0.00,0,Wunderground v.1.15,2013-11-05 07:30:00,
2013-11-04 23:35:00,56.5,42.8,30.10,NNE,33,5.0,7.0,60,0.00,,,0.00,0,Wunderground v.1.15,2013-11-05 07:35:00,
2013-11-04 23:45:00,56.3,43.0,30.10,NNE,33,6.0,7.0,61,0.00,,,0.00,0,Wunderground v.1.15,2013-11-05 07:45:00,
2013-11-04 23:55:00,56.3,42.1,30.11,NE,37,7.0,8.0,59,0.00,,,0.00,0,Wunderground v.1.15,2013-11-05 07:55:00,